| time (UTC) | temp C | wind direction | speed KPH | gust KPH | rain 1hr cm | rain 24hr cm | rain mn cm | humidity % | barometer mb |
| 20260504081556 | 8 | 0 | 0.0 | 3.2 | 0.00 | 0.00 | 0.00 | 68 | 1001.7 |
| 20260504081029 | 7 | 0 | 0.0 | 1.6 | 0.00 | 0.00 | 0.00 | 68 | 1001.8 |
| 20260504080529 | 7 | 0 | 0.0 | 1.6 | 0.00 | 0.00 | 0.00 | 68 | 1001.8 |
| 20260504050533 | 7 | 0 | 0.0 | 0.0 | 0.00 | 0.00 | 0.00 | 72 | 1004.4 |
| 20260504045531 | 7 | 0 | 0.0 | 0.0 | 0.00 | 0.00 | 0.00 | 73 | 1004.5 |
| 20260504045031 | 7 | 0 | 0.0 | 0.0 | 0.00 | 0.00 | 0.00 | 74 | 1004.6 |
| 20260504044557 | 7 | 0 | 0.0 | 0.0 | 0.00 | 0.00 | 0.00 | 74 | 1004.7 |
| 20260504044031 | 7 | 0 | 0.0 | 0.0 | 0.00 | 0.00 | 0.00 | 77 | 1004.8 |
| 20260504043530 | 7 | 0 | 0.0 | 0.0 | 0.00 | 0.00 | 0.00 | 75 | 1004.8 |
| 20260504043047 | 7 | 0 | 0.0 | 0.0 | 0.00 | 0.00 | 0.00 | 75 | 1004.9 |
| 20260504042530 | 7 | 0 | 0.0 | 0.0 | 0.00 | 0.00 | 0.00 | 78 | 1005.0 |
| 20260504042030 | 7 | 0 | 0.0 | 0.0 | 0.00 | 0.00 | 0.00 | 79 | 1005.0 |
| 20260504041543 | 7 | 0 | 0.0 | 0.0 | 0.00 | 0.00 | 0.00 | 80 | 1005.1 |
| 20260504041029 | 7 | 0 | 0.0 | 0.0 | 0.00 | 0.00 | 0.00 | 80 | 1005.1 |
| 20260504040532 | 7 | 0 | 0.0 | 0.0 | 0.00 | 0.00 | 0.00 | 79 | 1005.3 |
| 20260504040043 | 7 | 0 | 0.0 | 0.0 | 0.00 | 0.00 | 0.00 | 78 | 1005.3 |
| 20260504035529 | 7 | 0 | 0.0 | 0.0 | 0.00 | 0.00 | 0.00 | 79 | 1005.4 |
| 20260504035031 | 8 | 0 | 0.0 | 0.0 | 0.00 | 0.00 | 0.00 | 78 | 1005.5 |
| 20260504034551 | 8 | 0 | 0.0 | 0.0 | 0.00 | 0.00 | 0.00 | 78 | 1005.5 |
| 20260504034030 | 8 | 0 | 0.0 | 0.0 | 0.00 | 0.00 | 0.00 | 78 | 1005.6 |
| 20260504033530 | 8 | 0 | 0.0 | 0.0 | 0.00 | 0.00 | 0.00 | 74 | 1005.6 |
| 20260504033053 | 8 | 0 | 0.0 | 0.0 | 0.00 | 0.00 | 0.00 | 77 | 1005.7 |
| 20260504032530 | 8 | 0 | 0.0 | 0.0 | 0.00 | 0.00 | 0.00 | 76 | 1005.8 |
| 20260504032029 | 8 | 0 | 0.0 | 0.0 | 0.00 | 0.00 | 0.00 | 75 | 1005.7 |
| 20260504031545 | 8 | 0 | 0.0 | 0.0 | 0.00 | 0.00 | 0.00 | 74 | 1005.8 |
| 20260504031030 | 9 | 0 | 0.0 | 0.0 | 0.00 | 0.00 | 0.00 | 73 | 1005.8 |
| 20260504030530 | 9 | 0 | 0.0 | 0.0 | 0.00 | 0.00 | 0.00 | 71 | 1005.8 |
| 20260504030044 | 9 | 0 | 0.0 | 0.0 | 0.00 | 0.00 | 0.00 | 70 | 1005.9 |
| 20260504025531 | 10 | 0 | 0.0 | 0.0 | 0.00 | 0.00 | 0.00 | 69 | 1005.9 |
| 20260504025033 | 10 | 0 | 0.0 | 0.0 | 0.00 | 0.00 | 0.00 | 68 | 1005.8 |
| 20260504024546 | 10 | 0 | 0.0 | 0.0 | 0.00 | 0.00 | 0.00 | 68 | 1005.8 |
| 20260504024028 | 10 | 0 | 0.0 | 0.0 | 0.00 | 0.00 | 0.00 | 69 | 1005.8 |
| 20260504023529 | 10 | 0 | 0.0 | 0.0 | 0.00 | 0.00 | 0.00 | 67 | 1005.8 |
| 20260504023049 | 11 | 0 | 0.0 | 0.0 | 0.00 | 0.00 | 0.00 | 64 | 1005.7 |
| 20260504022528 | 11 | 0 | 0.0 | 0.0 | 0.00 | 0.00 | 0.00 | 62 | 1005.7 |
| 20260504022028 | 11 | 0 | 0.0 | 0.0 | 0.00 | 0.00 | 0.00 | 59 | 1005.8 |
| 20260504021547 | 12 | 0 | 0.0 | 0.0 | 0.00 | 0.00 | 0.00 | 58 | 1005.8 |
| 20260504021030 | 12 | 0 | 0.0 | 0.0 | 0.00 | 0.00 | 0.00 | 57 | 1005.8 |
| 20260504020528 | 12 | 0 | 0.0 | 0.0 | 0.00 | 0.00 | 0.00 | 54 | 1005.8 |
| 20260504020046 | 12 | 0 | 0.0 | 0.0 | 0.00 | 0.00 | 0.00 | 54 | 1005.9 |
| 20260504015530 | 13 | 0 | 0.0 | 0.0 | 0.00 | 0.00 | 0.00 | 50 | 1005.9 |
| 20260504015031 | 13 | 0 | 0.0 | 0.0 | 0.00 | 0.00 | 0.00 | 51 | 1005.8 |
| 20260504014548 | 13 | 0 | 0.0 | 0.0 | 0.00 | 0.00 | 0.00 | 49 | 1005.9 |
| 20260504014031 | 14 | 0 | 0.0 | 0.0 | 0.00 | 0.00 | 0.00 | 50 | 1006.0 |
| 20260504013530 | 15 | 0 | 0.0 | 0.0 | 0.00 | 0.00 | 0.00 | 48 | 1006.0 |
| 20260504013049 | 15 | 0 | 0.0 | 0.0 | 0.00 | 0.00 | 0.00 | 49 | 1005.9 |
| 20260504012530 | 16 | 0 | 0.0 | 0.0 | 0.00 | 0.00 | 0.00 | 46 | 1005.9 |
| 20260504012033 | 17 | 0 | 0.0 | 0.0 | 0.00 | 0.00 | 0.00 | 44 | 1005.9 |
| 20260504011538 | 17 | 0 | 0.0 | 0.0 | 0.00 | 0.00 | 0.00 | 44 | 1005.9 |
| 20260504011028 | 18 | 0 | 0.0 | 1.6 | 0.00 | 0.00 | 0.00 | 39 | 1005.9 |
| 20260504010528 | 18 | 0 | 0.0 | 4.8 | 0.00 | 0.00 | 0.00 | 36 | 1006.0 |
| 20260504010048 | 18 | 0 | 0.0 | 8.0 | 0.00 | 0.00 | 0.00 | 35 | 1006.0 |
| 20260504005529 | 18 | 301 | 1.6 | 8.0 | 0.00 | 0.00 | 0.00 | 34 | 1006.0 |
| 20260504005029 | 19 | 331 | 3.2 | 8.0 | 0.00 | 0.00 | 0.00 | 34 | 1006.0 |
| 20260504004544 | 19 | 305 | 1.6 | 9.7 | 0.00 | 0.00 | 0.00 | 34 | 1006.1 |
| 20260504004029 | 19 | 294 | 3.2 | 9.7 | 0.00 | 0.00 | 0.00 | 34 | 1006.0 |
| 20260504003528 | 20 | 309 | 1.6 | 16.1 | 0.00 | 0.00 | 0.00 | 34 | 1006.0 |
| 20260504003046 | 20 | 320 | 3.2 | 16.1 | 0.00 | 0.00 | 0.00 | 32 | 1006.0 |
| 20260504002531 | 20 | 296 | 4.8 | 16.1 | 0.00 | 0.00 | 0.00 | 32 | 1006.0 |
| 20260504002030 | 20 | 329 | 3.2 | 16.1 | 0.00 | 0.00 | 0.00 | 34 | 1006.1 |
| 20260504001605 | 20 | 329 | 3.2 | 16.1 | 0.00 | 0.00 | 0.00 | 34 | 1006.0 |
| 20260504001030 | 20 | 257 | 3.2 | 16.1 | 0.00 | 0.00 | 0.00 | 34 | 1006.0 |
| 20260504000534 | 20 | 301 | 3.2 | 14.5 | 0.00 | 0.00 | 0.00 | 34 | 1006.1 |
| 20260504000048 | 20 | 311 | 6.4 | 16.1 | 0.00 | 0.00 | 0.00 | 34 | 1006.0 |
| 20260503235530 | 20 | 298 | 6.4 | 16.1 | 0.00 | 0.00 | 0.00 | 33 | 1006.0 |
| 20260503235030 | 20 | 299 | 4.8 | 16.1 | 0.00 | 0.00 | 0.00 | 34 | 1006.0 |
| 20260503234543 | 20 | 277 | 4.8 | 12.9 | 0.00 | 0.00 | 0.00 | 34 | 1006.0 |
| 20260503234031 | 20 | 325 | 3.2 | 12.9 | 0.00 | 0.00 | 0.00 | 35 | 1006.1 |
| 20260503233530 | 20 | 268 | 4.8 | 14.5 | 0.00 | 0.00 | 0.00 | 33 | 1006.0 |
| 20260503233047 | 20 | 340 | 4.8 | 14.5 | 0.00 | 0.00 | 0.00 | 35 | 1006.1 |
| 20260503232528 | 21 | 292 | 4.8 | 16.1 | 0.00 | 0.00 | 0.00 | 35 | 1006.2 |
| 20260503232029 | 21 | 294 | 6.4 | 16.1 | 0.00 | 0.00 | 0.00 | 33 | 1006.2 |
| 20260503231541 | 21 | 292 | 6.4 | 19.3 | 0.00 | 0.00 | 0.00 | 31 | 1006.2 |
| 20260503231032 | 21 | 281 | 3.2 | 19.3 | 0.00 | 0.00 | 0.00 | 32 | 1006.2 |
| 20260503230529 | 21 | 277 | 4.8 | 20.9 | 0.00 | 0.00 | 0.00 | 31 | 1006.4 |
| 20260503230047 | 21 | 270 | 4.8 | 20.9 | 0.00 | 0.00 | 0.00 | 35 | 1006.2 |
| 20260503225530 | 21 | 286 | 4.8 | 20.9 | 0.00 | 0.00 | 0.00 | 35 | 1006.3 |
| 20260503225031 | 21 | 261 | 4.8 | 17.7 | 0.00 | 0.00 | 0.00 | 34 | 1006.2 |
| 20260503224546 | 21 | 302 | 6.4 | 24.1 | 0.00 | 0.00 | 0.00 | 34 | 1006.3 |
| 20260503224030 | 21 | 336 | 4.8 | 24.1 | 0.00 | 0.00 | 0.00 | 38 | 1006.2 |
| 20260503223529 | 21 | 290 | 4.8 | 16.1 | 0.00 | 0.00 | 0.00 | 33 | 1006.3 |
| 20260503223045 | 21 | 285 | 6.4 | 17.7 | 0.00 | 0.00 | 0.00 | 37 | 1006.2 |
| 20260503222531 | 21 | 309 | 6.4 | 19.3 | 0.00 | 0.00 | 0.00 | 36 | 1006.1 |
| 20260503222029 | 21 | 250 | 4.8 | 27.4 | 0.00 | 0.00 | 0.00 | 35 | 1006.1 |
| 20260503221544 | 21 | 329 | 6.4 | 27.4 | 0.00 | 0.00 | 0.00 | 34 | 1006.2 |
| 20260503221029 | 21 | 290 | 6.4 | 24.1 | 0.00 | 0.00 | 0.00 | 32 | 1006.2 |
| 20260503220529 | 21 | 263 | 4.8 | 20.9 | 0.00 | 0.00 | 0.00 | 34 | 1006.1 |
| 20260503220106 | 21 | 306 | 4.8 | 20.9 | 0.00 | 0.00 | 0.00 | 34 | 1006.2 |
| 20260503215529 | 21 | 313 | 4.8 | 19.3 | 0.00 | 0.00 | 0.00 | 33 | 1006.3 |
| 20260503215031 | 21 | 300 | 8.0 | 19.3 | 0.00 | 0.00 | 0.00 | 33 | 1006.2 |
| 20260503214548 | 21 | 289 | 6.4 | 16.1 | 0.00 | 0.00 | 0.00 | 34 | 1006.2 |
| 20260503214030 | 21 | 333 | 4.8 | 22.5 | 0.00 | 0.00 | 0.00 | 35 | 1006.2 |
| 20260503213531 | 21 | 283 | 9.7 | 22.5 | 0.00 | 0.00 | 0.00 | 33 | 1006.4 |
| 20260503213047 | 21 | 352 | 3.2 | 19.3 | 0.00 | 0.00 | 0.00 | 34 | 1006.4 |
| 20260503212533 | 21 | 327 | 9.7 | 19.3 | 0.00 | 0.00 | 0.00 | 35 | 1006.4 |
| 20260503212030 | 21 | 316 | 3.2 | 32.2 | 0.00 | 0.00 | 0.00 | 34 | 1006.3 |
| 20260503211600 | 21 | 244 | 11.3 | 32.2 | 0.00 | 0.00 | 0.00 | 34 | 1006.5 |
| 20260503211028 | 21 | 15 | 3.2 | 17.7 | 0.00 | 0.00 | 0.00 | 36 | 1006.4 |
| 20260503210530 | 22 | 12 | 6.4 | 17.7 | 0.00 | 0.00 | 0.00 | 34 | 1006.5 |
| 20260503210044 | 22 | 350 | 8.0 | 17.7 | 0.00 | 0.00 | 0.00 | 34 | 1006.4 |
| 20260503205530 | 21 | 284 | 6.4 | 17.7 | 0.00 | 0.00 | 0.00 | 33 | 1006.4 |
| 20260503205032 | 22 | 287 | 6.4 | 17.7 | 0.00 | 0.00 | 0.00 | 34 | 1006.5 |
| 20260503204547 | 22 | 336 | 4.8 | 12.9 | 0.00 | 0.00 | 0.00 | 32 | 1006.6 |
| 20260503204029 | 22 | 336 | 3.2 | 19.3 | 0.00 | 0.00 | 0.00 | 33 | 1006.5 |
| 20260503203532 | 21 | 305 | 6.4 | 19.3 | 0.00 | 0.00 | 0.00 | 33 | 1006.6 |
| 20260503203046 | 21 | 48 | 4.8 | 19.3 | 0.00 | 0.00 | 0.00 | 31 | 1006.6 |
| 20260503202531 | 21 | 330 | 4.8 | 19.3 | 0.00 | 0.00 | 0.00 | 34 | 1006.7 |
| 20260503202031 | 21 | 43 | 6.4 | 25.7 | 0.00 | 0.00 | 0.00 | 33 | 1006.8 |
| 20260503201549 | 21 | 300 | 8.0 | 25.7 | 0.00 | 0.00 | 0.00 | 35 | 1006.7 |
| 20260503201028 | 21 | 273 | 6.4 | 20.9 | 0.00 | 0.00 | 0.00 | 34 | 1006.7 |
| 20260503200530 | 21 | 329 | 6.4 | 20.9 | 0.00 | 0.00 | 0.00 | 37 | 1006.7 |
| 20260503200047 | 21 | 276 | 11.3 | 20.9 | 0.00 | 0.00 | 0.00 | 34 | 1006.8 |
| 20260503195528 | 21 | 289 | 4.8 | 17.7 | 0.00 | 0.00 | 0.00 | 35 | 1006.8 |
| 20260503195029 | 21 | 257 | 8.0 | 17.7 | 0.00 | 0.00 | 0.00 | 34 | 1006.7 |
| 20260503194549 | 21 | 18 | 6.4 | 24.1 | 0.00 | 0.00 | 0.00 | 34 | 1006.8 |
| 20260503194028 | 21 | 276 | 9.7 | 24.1 | 0.00 | 0.00 | 0.00 | 35 | 1006.8 |
| 20260503193532 | 21 | 281 | 8.0 | 24.1 | 0.00 | 0.00 | 0.00 | 33 | 1007.0 |
| 20260503193049 | 21 | 5 | 8.0 | 17.7 | 0.00 | 0.00 | 0.00 | 35 | 1006.8 |
| 20260503192530 | 21 | 17 | 6.4 | 20.9 | 0.00 | 0.00 | 0.00 | 34 | 1006.9 |
| 20260503192030 | 21 | 315 | 4.8 | 22.5 | 0.00 | 0.00 | 0.00 | 37 | 1006.9 |
| 20260503191543 | 21 | 331 | 8.0 | 22.5 | 0.00 | 0.00 | 0.00 | 35 | 1007.0 |
| 20260503191030 | 21 | 0 | 8.0 | 20.9 | 0.00 | 0.00 | 0.00 | 34 | 1007.1 |
| 20260503190530 | 21 | 5 | 4.8 | 20.9 | 0.00 | 0.00 | 0.00 | 35 | 1007.1 |
| 20260503190042 | 21 | 306 | 6.4 | 19.3 | 0.00 | 0.00 | 0.00 | 37 | 1007.1 |
| 20260503185530 | 21 | 323 | 6.4 | 19.3 | 0.00 | 0.00 | 0.00 | 39 | 1007.1 |
| 20260503185031 | 21 | 316 | 4.8 | 17.7 | 0.00 | 0.00 | 0.00 | 38 | 1007.2 |
| 20260503184549 | 21 | 346 | 6.4 | 22.5 | 0.00 | 0.00 | 0.00 | 35 | 1007.1 |
| 20260503184030 | 21 | 294 | 4.8 | 22.5 | 0.00 | 0.00 | 0.00 | 36 | 1007.1 |
| 20260503183531 | 21 | 327 | 8.0 | 22.5 | 0.00 | 0.00 | 0.00 | 35 | 1007.2 |
| 20260503183045 | 21 | 338 | 6.4 | 19.3 | 0.00 | 0.00 | 0.00 | 37 | 1007.1 |
| 20260503182529 | 21 | 311 | 6.4 | 17.7 | 0.00 | 0.00 | 0.00 | 41 | 1007.3 |
| 20260503182030 | 20 | 329 | 8.0 | 17.7 | 0.00 | 0.00 | 0.00 | 37 | 1007.0 |
| 20260503181617 | 20 | 348 | 4.8 | 17.7 | 0.00 | 0.00 | 0.00 | 40 | 1007.2 |
| 20260503181031 | 20 | 5 | 4.8 | 17.7 | 0.00 | 0.00 | 0.00 | 39 | 1007.3 |
| 20260503180532 | 20 | 331 | 3.2 | 16.1 | 0.00 | 0.00 | 0.00 | 40 | 1007.2 |
| 20260503180050 | 20 | 313 | 4.8 | 16.1 | 0.00 | 0.00 | 0.00 | 40 | 1007.2 |
| 20260503175529 | 20 | 360 | 8.0 | 16.1 | 0.00 | 0.00 | 0.00 | 39 | 1007.3 |
| 20260503175028 | 20 | 325 | 4.8 | 17.7 | 0.00 | 0.00 | 0.00 | 42 | 1007.3 |
| 20260503174543 | 20 | 5 | 4.8 | 20.9 | 0.00 | 0.00 | 0.00 | 42 | 1007.4 |
| 20260503174032 | 20 | 342 | 4.8 | 20.9 | 0.00 | 0.00 | 0.00 | 43 | 1007.5 |
| 20260503173528 | 20 | 352 | 11.3 | 20.9 | 0.00 | 0.00 | 0.00 | 41 | 1007.4 |
| 20260503173053 | 20 | 283 | 4.8 | 20.9 | 0.00 | 0.00 | 0.00 | 43 | 1007.5 |
| 20260503172532 | 20 | 318 | 8.0 | 20.9 | 0.00 | 0.00 | 0.00 | 44 | 1007.5 |
| 20260503172030 | 19 | 10 | 3.2 | 20.9 | 0.00 | 0.00 | 0.00 | 44 | 1007.4 |
| 20260503171550 | 19 | 336 | 8.0 | 20.9 | 0.00 | 0.00 | 0.00 | 44 | 1007.5 |
| 20260503171031 | 19 | 294 | 8.0 | 20.9 | 0.00 | 0.00 | 0.00 | 45 | 1007.4 |
| 20260503170531 | 18 | 341 | 8.0 | 20.9 | 0.00 | 0.00 | 0.00 | 44 | 1007.5 |
| 20260503150529 | 15 | 302 | 4.8 | 20.9 | 0.00 | 0.00 | 0.00 | 57 | 1007.0 |
| 20260503131030 | 11 | 258 | 3.2 | 14.5 | 0.00 | 0.00 | 0.00 | 60 | 1006.6 |
| 20260503130530 | 11 | 225 | 3.2 | 16.1 | 0.00 | 0.00 | 0.00 | 60 | 1006.5 |
| 20260503110533 | 8 | 0 | 0.0 | 1.6 | 0.00 | 0.00 | 0.00 | 66 | 1006.8 |